453  
ASUS41 KBGM 161110  
RWRBGM  
 
REGIONAL WEATHER ROUNDUP  
NATIONAL WEATHER SERVICE BINGHAMTON NY  
600 AM EST TUE JAN 16 2018  
 
NOTE: "FAIR" INDICATES FEW OR NO CLOUDS BELOW 12,000 FEET WITH NO  
SIGNIFICANT WEATHER AND/OR S TO VISIBILITY
.  
 
* = STATION(S) THAT DOES NOT REPORT PRECIPITATION, SUCH AS RAIN,  
SNOW, ETC, ALSO NO THUNDER OR FOG.
 
 
NYZ009-015>018-022>025-036-037-044>046-055>057-062-161200   
..CENTRAL NEW YORK
 
 
 
CITY SKY/WX TMP DP RH WIND PRES REMARKS
 
BINGHAMTON NOT AVBL  
CORTLAND LGT SNOW 23 21 93 NW5 30.33R WCI 17  
DANSVILLE CLOUDY 23 18 81 S6 30.34R WCI 16  
ELMIRA LGT SNOW 22 20 92 CALM 30.34R FOG  
SENECA FALLS LGT SNOW 25 21 86 S7 30.37R WCI 17  
ITHACA FLURRIES 22 19 89 S7 30.33R WCI 13  
HORNELL LGT SNOW 19 18 93 CALM 30.35R  
MONTICELLO LGT SNOW 19 16 86 E3 30.39S FOG  
PENN YAN LGT SNOW 23 18 81 S10 30.33R WCI 12  
ROME FLURRIES 17 14 88 SE6 30.40S WCI 9  
SIDNEY LGT RAIN 21 18 86 SW7 30.36R WCI 13  
SYRACUSE LGT SNOW 16 16 100 E3 30.37S FOG  

 
 
PAZ038>040-043-044-047-048-072-161200   
..NORTHEAST PENNSYLVANIA
 
 
 
CITY SKY/WX TMP DP RH WIND PRES REMARKS
 
HAZLETON LGT SNOW 23 21 93 CALM 30.38R  
SCRANTON LGT SNOW 24 21 88 CALM 30.40R FOG  

 

 
KEY  
WCI = WIND CHILL INDEX  
VSB = VISIBILITY  
HX = HEAT INDEX  

 
 
 
CLICK HERE TO GO TO PREVIOUS BULLETINS.

The Nexlab NY Page
The Nexlab PA Page Main Text Page